CEB821 RPLL-RPUV

Flight info

Callsign CEB821
Flight time 0h 44m
Altitude 23000
Route RPLL/31 HARBO1 HARBO DCT TIMON W15 RAGAY W15A NGA RPUV/06
Aircraft A320/M-SDE3FGHIRWY/LB1

Departure

Time 2026-04-24 03:30
Airport Ninoy Aquino International Airport (RPLL)

Arrival

Time 2026-04-24 04:14
Airport Virac Airport (RPUV)
Time Latitude Longitude Altitude Speed Heading
2026-04-24 03:11 14.52285 121.00844 84 ft 0 kts 44°
2026-04-24 03:18 14.52276 121.00835 84 ft 2 kts 44°
2026-04-24 03:18 14.52266 121.00824 84 ft 2 kts 58°
2026-04-24 03:18 14.52260 121.00810 84 ft 2 kts 70°
2026-04-24 03:19 14.52256 121.00795 84 ft 2 kts 85°
2026-04-24 03:19 14.52256 121.00781 84 ft 2 kts 99°
2026-04-24 03:19 14.52260 121.00765 84 ft 2 kts 113°
2026-04-24 03:19 14.52267 121.00751 84 ft 2 kts 127°
2026-04-24 03:20 14.52273 121.00745 84 ft 1 kts 135°
2026-04-24 03:20 14.52276 121.00742 84 ft 0 kts 135°
2026-04-24 03:22 14.52273 121.00745 84 ft 1 kts 136°
2026-04-24 03:22 14.52264 121.00754 84 ft 3 kts 135°
2026-04-24 03:23 14.52242 121.00776 84 ft 5 kts 145°
2026-04-24 03:23 14.52201 121.00766 84 ft 7 kts 217°
2026-04-24 03:23 14.52150 121.00767 84 ft 8 kts 137°
2026-04-24 03:23 14.52107 121.00812 84 ft 9 kts 135°
2026-04-24 03:24 14.52060 121.00861 84 ft 10 kts 135°
2026-04-24 03:24 14.52009 121.00913 84 ft 10 kts 135°
2026-04-24 03:24 14.51954 121.00970 84 ft 11 kts 135°
2026-04-24 03:24 14.51897 121.01028 84 ft 12 kts 135°
2026-04-24 03:25 14.51836 121.01091 84 ft 12 kts 135°
2026-04-24 03:25 14.51774 121.01156 84 ft 12 kts 135°
2026-04-24 03:25 14.51709 121.01223 84 ft 13 kts 135°
2026-04-24 03:25 14.51643 121.01291 84 ft 13 kts 135°
2026-04-24 03:26 14.51573 121.01363 84 ft 15 kts 135°
2026-04-24 03:26 14.51495 121.01444 84 ft 16 kts 135°
2026-04-24 03:26 14.51415 121.01527 84 ft 16 kts 135°
2026-04-24 03:26 14.51336 121.01609 84 ft 16 kts 135°
2026-04-24 03:27 14.51257 121.01691 84 ft 16 kts 135°
2026-04-24 03:27 14.51181 121.01769 84 ft 11 kts 134°
2026-04-24 03:27 14.51124 121.01829 84 ft 9 kts 134°
2026-04-24 03:27 14.51079 121.01863 84 ft 7 kts 172°
2026-04-24 03:28 14.51037 121.01833 84 ft 8 kts 245°
2026-04-24 03:28 14.51032 121.01787 84 ft 6 kts 284°
2026-04-24 03:28 14.51051 121.01760 84 ft 1 kts 315°
2026-04-24 03:29 14.51223 121.01583 84 ft 74 kts 315°
2026-04-24 03:29 14.51760 121.01028 84 ft 141 kts 315°
2026-04-24 03:30 14.52542 121.00228 407 ft 166 kts 315°
2026-04-24 03:30 14.53358 120.99390 1040 ft 170 kts 314°
2026-04-24 03:30 14.54182 120.98528 1737 ft 168 kts 314°
2026-04-24 03:30 14.55006 120.97669 2099 ft 175 kts 314°
2026-04-24 03:31 14.55897 120.96740 2371 ft 188 kts 314°
2026-04-24 03:31 14.56852 120.95749 2651 ft 202 kts 315°
2026-04-24 03:31 14.57873 120.94695 2938 ft 216 kts 314°
2026-04-24 03:31 14.59069 120.93634 3106 ft 240 kts 334°
2026-04-24 03:32 14.60755 120.93358 3392 ft 257 kts 12°
2026-04-24 03:32 14.62352 120.94209 3703 ft 271 kts 48°
2026-04-24 03:32 14.63217 120.95918 4179 ft 275 kts 84°
2026-04-24 03:32 14.62978 120.97839 4857 ft 272 kts 117°
2026-04-24 03:33 14.61890 120.99416 5531 ft 272 kts 133°
2026-04-24 03:33 14.60639 121.00887 6175 ft 276 kts 132°
2026-04-24 03:33 14.59426 121.02430 6774 ft 283 kts 129°
2026-04-24 03:33 14.58686 121.03453 7165 ft 287 kts 128°
2026-04-24 03:34 14.57808 121.04746 7740 ft 287 kts 127°
2026-04-24 03:34 14.56677 121.06499 8359 ft 293 kts 125°
2026-04-24 03:35 14.55594 121.08247 8927 ft 299 kts 124°
2026-04-24 03:35 14.54475 121.10105 9549 ft 304 kts 123°
2026-04-24 03:35 14.53347 121.12001 10163 ft 309 kts 122°
2026-04-24 03:35 14.52206 121.13940 10557 ft 322 kts 122°
2026-04-24 03:36 14.51006 121.15988 10841 ft 338 kts 122°
2026-04-24 03:36 14.49769 121.18098 11176 ft 351 kts 122°
2026-04-24 03:36 14.48490 121.20284 11722 ft 356 kts 121°
2026-04-24 03:36 14.47191 121.22504 12325 ft 360 kts 121°
2026-04-24 03:37 14.45904 121.24712 12916 ft 362 kts 121°
2026-04-24 03:37 14.44597 121.26954 13516 ft 365 kts 122°
2026-04-24 03:37 14.43276 121.29217 14110 ft 367 kts 122°
2026-04-24 03:37 14.41947 121.31492 14696 ft 370 kts 122°
2026-04-24 03:38 14.40625 121.33754 15266 ft 372 kts 122°
2026-04-24 03:38 14.39275 121.36060 15836 ft 374 kts 122°
2026-04-24 03:38 14.37937 121.38345 16391 ft 376 kts 122°
2026-04-24 03:38 14.36581 121.40660 16942 ft 378 kts 122°
2026-04-24 03:39 14.35222 121.42981 17482 ft 380 kts 122°
2026-04-24 03:39 14.33864 121.45298 18011 ft 382 kts 123°
2026-04-24 03:39 14.32476 121.47667 18538 ft 384 kts 123°
2026-04-24 03:39 14.31084 121.50040 19056 ft 386 kts 123°
2026-04-24 03:40 14.29700 121.52399 19562 ft 388 kts 123°
2026-04-24 03:40 14.28272 121.54833 20074 ft 390 kts 123°
2026-04-24 03:40 14.26874 121.57216 20563 ft 392 kts 123°
2026-04-24 03:40 14.25441 121.59656 20995 ft 396 kts 123°
2026-04-24 03:41 14.24014 121.62086 21446 ft 398 kts 123°
2026-04-24 03:41 14.22587 121.64516 21918 ft 400 kts 123°
2026-04-24 03:41 14.21088 121.67068 22404 ft 402 kts 123°
2026-04-24 03:41 14.19646 121.69523 22829 ft 404 kts 123°
2026-04-24 03:42 14.18172 121.72028 22967 ft 405 kts 123°
2026-04-24 03:42 14.16719 121.74500 22970 ft 404 kts 123°
2026-04-24 03:42 14.15260 121.76982 22972 ft 404 kts 123°
2026-04-24 03:42 14.13796 121.79472 22973 ft 403 kts 123°
2026-04-24 03:43 14.12343 121.81940 22973 ft 403 kts 123°
2026-04-24 03:43 14.10879 121.84428 22973 ft 404 kts 123°
2026-04-24 03:43 14.09416 121.86911 22973 ft 404 kts 123°
2026-04-24 03:43 14.07949 121.89402 22973 ft 404 kts 123°
2026-04-24 03:44 14.06491 121.91876 22973 ft 404 kts 123°
2026-04-24 03:44 14.05094 121.94340 22973 ft 404 kts 120°
2026-04-24 03:44 14.03776 121.96928 22974 ft 404 kts 119°
2026-04-24 03:44 14.02495 121.99503 22973 ft 404 kts 119°
2026-04-24 03:45 14.01216 122.02074 22973 ft 404 kts 119°
2026-04-24 03:45 13.99906 122.04705 22973 ft 404 kts 119°
2026-04-24 03:45 13.98627 122.07269 22973 ft 404 kts 119°
2026-04-24 03:45 13.97334 122.09856 22973 ft 404 kts 119°
2026-04-24 03:46 13.96055 122.12413 22973 ft 404 kts 119°
2026-04-24 03:46 13.94747 122.15027 22973 ft 404 kts 119°
2026-04-24 03:46 13.93450 122.17619 22973 ft 404 kts 119°
2026-04-24 03:46 13.92163 122.20189 22973 ft 404 kts 119°
2026-04-24 03:47 13.90872 122.22769 22973 ft 404 kts 119°
2026-04-24 03:47 13.89629 122.25254 22974 ft 404 kts 119°
2026-04-24 03:47 13.88393 122.27721 22974 ft 404 kts 119°
2026-04-24 03:47 13.87043 122.30415 22973 ft 404 kts 119°
2026-04-24 03:48 13.85740 122.33012 22973 ft 404 kts 119°
2026-04-24 03:48 13.84447 122.35590 22973 ft 404 kts 119°
2026-04-24 03:48 13.83155 122.38166 22973 ft 404 kts 119°
2026-04-24 03:48 13.81869 122.40727 22973 ft 404 kts 119°
2026-04-24 03:49 13.80588 122.43278 22973 ft 404 kts 119°
2026-04-24 03:49 13.79291 122.45858 22973 ft 404 kts 119°
2026-04-24 03:49 13.77994 122.48439 22973 ft 404 kts 119°
2026-04-24 03:49 13.76706 122.51000 22973 ft 404 kts 119°
2026-04-24 03:50 13.75425 122.53548 22973 ft 404 kts 119°
2026-04-24 03:50 13.74158 122.56165 22972 ft 405 kts 116°
2026-04-24 03:50 13.73102 122.58860 22973 ft 406 kts 110°
2026-04-24 03:50 13.72281 122.61668 22973 ft 407 kts 105°
2026-04-24 03:51 13.71650 122.64477 22974 ft 407 kts 104°
2026-04-24 03:51 13.71037 122.67374 22973 ft 407 kts 104°
2026-04-24 03:51 13.70434 122.70242 22973 ft 407 kts 104°
2026-04-24 03:51 13.69834 122.73080 22974 ft 407 kts 104°
2026-04-24 03:52 13.69228 122.75932 22955 ft 408 kts 104°
2026-04-24 03:52 13.68622 122.78767 22512 ft 407 kts 104°
2026-04-24 03:52 13.68009 122.81630 22010 ft 403 kts 104°
2026-04-24 03:52 13.67406 122.84441 21509 ft 400 kts 104°
2026-04-24 03:53 13.66815 122.87191 21007 ft 397 kts 104°
2026-04-24 03:53 13.66220 122.89959 20501 ft 395 kts 104°
2026-04-24 03:53 13.65631 122.92695 20003 ft 392 kts 104°
2026-04-24 03:53 13.65042 122.95428 19506 ft 390 kts 104°
2026-04-24 03:54 13.64463 122.98114 19017 ft 388 kts 103°
2026-04-24 03:54 13.63886 123.00790 18532 ft 386 kts 103°
2026-04-24 03:54 13.63307 123.03474 18043 ft 384 kts 103°
2026-04-24 03:54 13.62768 123.05967 17586 ft 382 kts 103°
2026-04-24 03:55 13.62167 123.08753 17078 ft 380 kts 103°
2026-04-24 03:55 13.61596 123.11394 16597 ft 378 kts 103°
2026-04-24 03:55 13.61029 123.14014 16114 ft 377 kts 103°
2026-04-24 03:55 13.60464 123.16626 15628 ft 375 kts 103°
2026-04-24 03:56 13.59901 123.19224 15145 ft 374 kts 103°
2026-04-24 03:56 13.59341 123.21812 14660 ft 373 kts 103°
2026-04-24 03:56 13.58778 123.24419 14172 ft 371 kts 102°
2026-04-24 03:56 13.58325 123.27016 13692 ft 369 kts 97°
2026-04-24 03:57 13.58061 123.29652 13214 ft 367 kts 93°
2026-04-24 03:57 13.57903 123.32244 12750 ft 364 kts 92°
2026-04-24 03:57 13.57761 123.34840 12294 ft 362 kts 92°
2026-04-24 03:57 13.57619 123.37434 11843 ft 359 kts 92°
2026-04-24 03:58 13.57476 123.39997 11412 ft 355 kts 92°
2026-04-24 03:58 13.57334 123.42519 10996 ft 351 kts 92°
2026-04-24 03:58 13.57190 123.45023 10590 ft 347 kts 92°
2026-04-24 03:58 13.57050 123.47448 10247 ft 340 kts 91°
2026-04-24 03:59 13.56912 123.49854 10121 ft 326 kts 91°
2026-04-24 03:59 13.56777 123.52149 10068 ft 311 kts 91°
2026-04-24 03:59 13.56649 123.54326 10009 ft 297 kts 91°
2026-04-24 03:59 13.56528 123.56438 9677 ft 297 kts 91°
2026-04-24 04:00 13.56403 123.58572 9316 ft 295 kts 91°
2026-04-24 04:00 13.56282 123.60674 8980 ft 293 kts 91°
2026-04-24 04:00 13.56160 123.62757 8654 ft 290 kts 91°
2026-04-24 04:00 13.56039 123.64816 8335 ft 287 kts 91°
2026-04-24 04:01 13.55919 123.66856 8024 ft 284 kts 91°
2026-04-24 04:01 13.55800 123.68879 7732 ft 280 kts 91°
2026-04-24 04:01 13.55684 123.70860 7435 ft 277 kts 91°
2026-04-24 04:01 13.55569 123.72839 7100 ft 276 kts 91°
2026-04-24 04:02 13.55455 123.74771 6784 ft 274 kts 91°
2026-04-24 04:02 13.55340 123.76723 6467 ft 272 kts 91°
2026-04-24 04:02 13.55235 123.78497 6181 ft 270 kts 91°
2026-04-24 04:02 13.55120 123.80430 5894 ft 266 kts 91°
2026-04-24 04:03 13.55008 123.82323 5577 ft 265 kts 91°
2026-04-24 04:03 13.55003 123.82402 5563 ft 265 kts 91°
2026-04-24 04:03 13.54941 123.83690 5325 ft 266 kts 94°
2026-04-24 04:03 13.54831 123.85606 4942 ft 268 kts 95°
2026-04-24 04:04 13.54708 123.87524 4587 ft 269 kts 94°
2026-04-24 04:04 13.54590 123.89460 4254 ft 268 kts 95°
2026-04-24 04:04 13.54475 123.91365 3938 ft 266 kts 95°
2026-04-24 04:04 13.54361 123.93271 3629 ft 266 kts 95°
2026-04-24 04:05 13.54244 123.95180 3463 ft 262 kts 95°
2026-04-24 04:05 13.54134 123.96994 3438 ft 248 kts 95°
2026-04-24 04:05 13.54030 123.98717 3404 ft 237 kts 95°
2026-04-24 04:05 13.53929 124.00396 3355 ft 226 kts 95°
2026-04-24 04:06 13.53832 124.01972 3271 ft 218 kts 95°
2026-04-24 04:06 13.53748 124.03516 3092 ft 214 kts 95°
2026-04-24 04:06 13.53667 124.05051 2790 ft 214 kts 94°
2026-04-24 04:06 13.53583 124.06581 2525 ft 212 kts 97°
2026-04-24 04:07 13.53404 124.08061 2414 ft 199 kts 100°
2026-04-24 04:07 13.53182 124.09435 2247 ft 189 kts 101°
2026-04-24 04:07 13.52962 124.10725 2185 ft 171 kts 102°
2026-04-24 04:07 13.52777 124.11859 2173 ft 163 kts 102°
2026-04-24 04:08 13.52584 124.13052 2188 ft 163 kts 102°
2026-04-24 04:08 13.52386 124.14195 2198 ft 162 kts 103°
2026-04-24 04:08 13.52186 124.15346 2193 ft 162 kts 102°
2026-04-24 04:08 13.51979 124.16489 2197 ft 163 kts 103°
2026-04-24 04:09 13.51779 124.17627 2197 ft 161 kts 102°
2026-04-24 04:09 13.51577 124.18784 2194 ft 162 kts 102°
2026-04-24 04:09 13.51370 124.19930 2144 ft 163 kts 103°
2026-04-24 04:09 13.51369 124.21096 1993 ft 164 kts 73°
2026-04-24 04:10 13.51823 124.22163 1888 ft 164 kts 62°
2026-04-24 04:10 13.52388 124.23197 1793 ft 164 kts 59°
2026-04-24 04:10 13.52963 124.24208 1715 ft 164 kts 60°
2026-04-24 04:11 13.54135 124.26226 1563 ft 162 kts 59°
2026-04-24 04:11 13.54714 124.27234 1500 ft 162 kts 60°
2026-04-24 04:11 13.55294 124.28234 1501 ft 162 kts 59°
2026-04-24 04:11 13.56017 124.29084 1407 ft 152 kts 30°
2026-04-24 04:12 13.56986 124.29376 1184 ft 144 kts 355°
2026-04-24 04:12 13.57941 124.29092 1012 ft 141 kts 324°
2026-04-24 04:12 13.58625 124.28390 920 ft 140 kts 296°
2026-04-24 04:12 13.58941 124.27442 869 ft 140 kts 276°
2026-04-24 04:13 13.59036 124.26438 859 ft 141 kts 272°
2026-04-24 04:13 13.59103 124.25427 783 ft 141 kts 272°
2026-04-24 04:13 13.59158 124.24416 696 ft 141 kts 270°
2026-04-24 04:13 13.59152 124.23397 576 ft 140 kts 259°
2026-04-24 04:14 13.58813 124.22472 451 ft 140 kts 240°
2026-04-24 04:14 13.58315 124.21612 275 ft 137 kts 239°
2026-04-24 04:14 13.57861 124.20764 163 ft 121 kts 241°
2026-04-24 04:14 13.57587 124.20287 162 ft 34 kts 239°
2026-04-24 04:15 13.57524 124.20173 162 ft 6 kts 240°
2026-04-24 04:15 13.57501 124.20132 162 ft 7 kts 238°
2026-04-24 04:15 13.57475 124.20108 162 ft 3 kts 215°
2026-04-24 04:15 13.57479 124.20092 162 ft 3 kts 334°
2026-04-24 04:16 13.57497 124.20106 162 ft 4 kts 70°
2026-04-24 04:16 13.57508 124.20141 162 ft 5 kts 65°
2026-04-24 04:16 13.57535 124.20194 162 ft 10 kts 60°
2026-04-24 04:16 13.57577 124.20268 162 ft 12 kts 60°
2026-04-24 04:17 13.57621 124.20348 162 ft 13 kts 60°
2026-04-24 04:17 13.57666 124.20431 162 ft 13 kts 60°
2026-04-24 04:17 13.57713 124.20517 162 ft 14 kts 60°
2026-04-24 04:17 13.57739 124.20564 162 ft 14 kts 60°
2026-04-24 04:18 13.57769 124.20618 162 ft 14 kts 60°
2026-04-24 04:18 13.57821 124.20710 162 ft 14 kts 60°
2026-04-24 04:18 13.57873 124.20805 162 ft 15 kts 60°
2026-04-24 04:18 13.57925 124.20899 162 ft 15 kts 61°
2026-04-24 04:19 13.57979 124.20998 162 ft 15 kts 60°
2026-04-24 04:19 13.58032 124.21096 162 ft 15 kts 60°
2026-04-24 04:19 13.58067 124.21159 162 ft 5 kts 60°
2026-04-24 04:19 13.58076 124.21191 162 ft 4 kts 103°
2026-04-24 04:20 13.58047 124.21214 162 ft 5 kts 149°
2026-04-24 04:20 13.58016 124.21220 162 ft 4 kts 207°
2026-04-24 04:20 13.57995 124.21188 162 ft 4 kts 242°
2026-04-24 04:20 13.57972 124.21170 162 ft 4 kts 176°
2026-04-24 04:21 13.57949 124.21172 162 ft 1 kts 177°
2026-04-24 04:21 13.57944 124.21172 162 ft 0 kts 178°